Terug naar catalogus

STARLINK-5274

ActiefCommunicatieVLEO
NORAD 55395·PAYLOAD·🇺🇸 United States

Gelanceerd Jan 31, 2023 vanaf Vandenberg Space Force Base

Loading…

Volgende Passages (komende 24 uur)

TLE

VersSource: CelesTrak SupGP

Epoch: Sep 14, 2026, 22:04 UTC

1 55395C 23014E   26257.91993056  .00028712  00000+0  24066-2 0  2577
2 55395  69.9994 307.1688 0003787 271.3208 113.7556 14.98308424    18

Volg STARLINK-5274 in realtime met AllMySat

Download on the App Store